Location: Unspecified
(17.6330°N, 0.0000°E)
Time: 11:07:00
(UTC+00:00)

A-11 Canister half - Pass Details

Date: 18 June 2019
Orbit: 1514 x 1686 km, 47.2° (Epoch: 16 October)

Event Time Altitude Azimuth Distance (km) Brightness Sun altitude
Rises 10:49:28 0° 244° (WSW) 4,924 11.5 72.3°
Reaches altitude 10° 10:52:54 10° 250° (WSW) 3,925 11.1 73.0°
Maximum altitude 11:02:15 43° 319° (NW) 2,184 10.5 75.1°
Drops below altitude 10° 11:11:23 10° 28° (NNE) 3,817 11.4 77.0°
Sets 11:14:43 0° 35° (NE) 4,778 11.7 77.7°
